Location: Chrome
(40.5765°N, 74.2163°W)
Time: 12:54:41
(UTC+00:00)

Envisat - Pass Details

Date: 06 December 2019
Orbit: 764 x 766 km, 98.1° (Epoch: 19 January)

Event Time Altitude Azimuth Distance (km) Brightness Sun altitude
Rises 23:23:10 0° 182° (S) 3,217 6.4 -20.9°
Reaches altitude 10° 23:25:33 10° 188° (S) 2,296 5.7 -21.3°
Maximum altitude 23:30:24 46° 261° (W) 1,029 4.1 -22.2°
Drops below altitude 10° 23:35:17 10° 335° (NNW) 2,312 5.6 -23.1°
Sets 23:37:42 0° 341° (NNW) 3,242 6.4 -23.6°
